Regional Weather Roundup
Issued by NWS

Home | Current Version | Previous Version | Graphics & Text | Print | Product List | Glossary On
Versions: 1 2 3 4 5 6 7 8 9 10 11 12 13 14 15 16 17 18 19 20 21 22 23 24 25 26 27 28
000
ASUS45 KBOU 310107
RWRCO

WEATHER ROUNDUP FOR COLORADO
NATIONAL WEATHER SERVICE DENVER/BOULDER CO
700 PM MDT MON MAY 30 2016

NOTE: "FAIR" INDICATES FEW OR NO CLOUDS BELOW 12000 FEET WITH NO
SIGNIFICANT WEATHER AND/OR OBSTRUCTIONS TO VISIBILITY.

COZ001>005-013-030-031-310200-
...NORTHWEST COLORADO...

CITY           SKY/WX    TMP DP  RH WIND       PRES   REMARKS
CRAIG          PTSUNNY   63  38  39 SW9       30.06S
HAYDEN         FAIR      64  37  36 SW13G21   30.09R
MEEKER         FAIR      61  40  45 NE8       30.08F
MOUNT WERNER   NOT AVBL
STEAMBOAT SPGS PTSUNNY   61  38  42 SW6       30.10R
WALDEN         NOT AVBL
$$

COZ006>008-011-310200-
...WEST CENTRAL VALLEYS...

CITY           SKY/WX    TMP DP  RH WIND       PRES   REMARKS
GRAND JUNCTION FAIR      75  29  18 S8        29.97S
MONTROSE       PTSUNNY   69  33  26 S20       30.07R
EAGLE          PTSUNNY   64  28  25 W6G16     30.12S
RIFLE          FAIR      67  34  29 CALM      30.03F
DELTA          FAIR      80  23  12 W12G18    30.00R
NUCLA          FAIR      72  23  16 NW6       30.07S
$$

COZ017>023-064>068-310200-
...SOUTHWEST COLORADO...

CITY           SKY/WX    TMP DP  RH WIND       PRES   REMARKS
DURANGO        FAIR      72  18  13 W8        30.03S
CORTEZ         FAIR      78  18  10 SW8       30.00F
PAGOSA SPRINGS FAIR      70   9   9 SW9       30.11S
TELLURIDE      LGT RAIN  51  33  49 E10G22    30.29R
WOLF CREEK PAS FAIR      43  14  31 SW14G22   30.39S
$$

COZ009-010-012-014-032>034-037-058>063-310200-
...CENTRAL COLORADO...

CITY           SKY/WX    TMP DP  RH WIND       PRES   REMARKS
ASPEN          LGT RAIN  51  41  68 SE13      30.24R
BUENA VISTA    FAIR      57  26  30 SW7       30.17S
COPPER MTN     NOT AVBL
BERTHOUD PASS  CLOUDY    30  21  69 MISG      30.39R
COTTONWOOD PAS FAIR      52  27  37 W13G18    30.28F
GUNNISON       FAIR      55  34  44 E10       30.20R
KREMMLING      PTSUNNY   50  37  62 SE3       30.18S
LEADVILLE      PTSUNNY   45  28  51 NW14G25   30.30R
MONARCH PASS   PTSUNNY   37  28  70 W17       30.49F
SALIDA         FAIR      60  30  32 CALM      30.22F
SUNLIGHT       CLOUDY    45  27  49 CALM      30.35S
WILKERSON PASS FAIR      45  25  45 SW8       30.38S
$$

COZ069>075-310200-
...SAN LUIS VALLEY/SANGRE DE CRISTO MOUNTAINS...

CITY           SKY/WX    TMP DP  RH WIND       PRES   REMARKS
ALAMOSA        FAIR      71  27  19 N17       30.07R
LA VETA PASS   PTSUNNY   59  19  21 S6        30.25R
SAGUACHE       FAIR      59  30  33 NW25G31   30.16R
$$

COZ035-036-038>040-310200-
...NORTHERN COLORADO FRONT RANGE...

CITY           SKY/WX    TMP DP  RH WIND       PRES   REMARKS
DENVER INTL AP PTSUNNY   60  44  55 SE12      30.01R
DMNS CITY PARK   N/A     67  31  26 NW14G24   30.04R
AURORA         PTSUNNY   59  45  59 S2        30.04R
FRONT RANGE AP PTSUNNY   59  45  58 E17       30.02R
ERIE MUNI ARPT FAIR      65  44  45 N12       30.02R
BOULDER MUN AP PTSUNNY   64  32  29 SE5       30.01F
CENTENNIAL     PTSUNNY   62  40  44 E9        30.05R
BROOMFIELD     PTSUNNY   66  36  32 W20G25    30.06R
FORT COLLINS   FAIR      39 N/A N/A S8        30.02R
LONGMONT       CLOUDY    67  37  33 NW3       30.03F
$$

COZ041-046-047-076>085-087-088-310200-
...PIKES PEAK/PALMER DIVIDE AND SOUTHERN FOOTHILLS...

CITY           SKY/WX    TMP DP  RH WIND       PRES   REMARKS
COLO. SPRINGS  PTSUNNY   66  39  37 N21G26    30.06R
A. F. ACADEMY  FAIR      61  37  41 NW15G23   30.08R
SCHRIEVER AFB  NOT AVBL
ELLICOTT       NOT AVBL
FALCON         CLOUDY    60  38  44 N15G21    30.09R
FORT CARSON    FAIR      67  40  36 NW8       29.99R
LIMON          FAIR      62  46  55 N15G22    30.02R
MONUMENT HILL  FAIR      54  41  62 NE8       30.13R
TRINIDAD       FAIR      74  35  24 S10       29.96S
$$

COZ042>045-048>051-090-091-310200-
...NORTHEAST COLORADO...

CITY           SKY/WX    TMP DP  RH WIND       PRES   REMARKS
GREELEY ARPT   FAIR      64  46  52 SE6       30.00S
AKRON          FAIR      61  46  57 NW5       29.98F
BURLINGTON     PTSUNNY   67  46  47 NW21G33   29.98R
WRAY           FAIR      64  50  59 NW15G23   29.94R
STERLING       FAIR      61  52  72 S7        29.92F
HOLYOKE        FAIR      66  46  48 W15       29.90F
FORT MORGAN    FAIR      60  48  66 SE6       29.97F
$$

COZ086-089-092>099-310200-
...SOUTHEAST COLORADO...

CITY           SKY/WX    TMP DP  RH WIND       PRES   REMARKS
PUEBLO         FAIR      76  46  34 NE8       29.90R
LA JUNTA       LGT RAIN  75  44  33 NE25G32   29.89F
LAMAR          FAIR      72  45  37 N21G31    29.86R
SPRINGFIELD      N/A     77  47  34 S12       29.88F
$$




USA.gov is the U.S. government's official web portal to all federal, state and local government web resources and services.